Location: Allaines
(49.9632°N, 2.9458°E)
Time: 17:11:46
(UTC+00:00)

Cosmos 2322 Rocket - Pass Details

Date: 09 April 2020
Orbit: 834 x 849 km, 71.0° (Epoch: 29 May)

Event Time Altitude Azimuth Distance (km) Brightness Sun altitude
Rises 23:18:00 0° 329° (NNW) 3,405 6.3 -31.6°
Reaches altitude 10° 23:20:28 10° 327° (NNW) 2,465 5.3 -31.7°
Enters shadow 23:24:38 49° 308° (NW) 1,079 2.9 -31.7°
